Volver al catálogo

FENGYUN 1C DEB

ActivoPO
NORAD 31046·DEBRIS·🇨🇳 China

Lanzado May 10, 1999 desde Taiyuan Satellite Launch Center

Loading…

Próximos Pases (próximas 24 horas)

TLE

ActualizadoSource: Space-Track

Época: Sep 14, 2026, 09:25 UTC

1 31046U 99025BEQ 26257.39261032  .00017091  00000-0  23349-2 0  9998
2 31046  98.9639  49.8807 0033556 324.5270  64.1882 14.78276404  6919

Sigue FENGYUN 1C DEB en tiempo real con AllMySat

Download on the App Store